This is the latest recevied weather packets stored in our database for station/object SP9MLI-1. If no packets are shown the sender has not sent any weather packets the latest 10 day(s).
| Time | Temp. | Humidity | Pressure | Rain* | Wind** | Luminosity | Snow |
|---|---|---|---|---|---|---|---|
| 1777945994 | 6.11° C | 99% | 1010.3 hPa | 0 mm | - | - | - |
| 1777945095 | 6.11° C | 99% | 1010.3 hPa | 0 mm | - | - | - |
| 1777944193 | 6.67° C | 99% | 1010.3 hPa | 0 mm | - | - | - |
| 1777943294 | 6.67° C | 99% | 1010.3 hPa | 0 mm | - | - | - |
| 1777942393 | 7.22° C | 99% | 1010.6 hPa | 0 mm | - | - | - |
| 1777941494 | 7.78° C | 98% | 1010.3 hPa | 0 mm | - | - | - |
| 1777940593 | 8.89° C | 98% | 1010.9 hPa | 0 mm | - | - | - |
| 1777939696 | 8.89° C | 98% | 1010.9 hPa | 0 mm | - | - | - |
| 1777938793 | 8.89° C | 98% | 1010.9 hPa | 0 mm | - | - | - |
| 1777937894 | 8.89° C | 98% | 1010.9 hPa | 0 mm | - | - | - |
| 1777936993 | 8.89° C | 98% | 1010.9 hPa | 0 mm | - | - | - |
| 1777936094 | 9.44° C | 97% | 1011.3 hPa | 0 mm | - | - | - |
| 1777935196 | 9.44° C | 97% | 1011.6 hPa | 0 mm | - | - | - |
| 1777934293 | 9.44° C | 97% | 1011.3 hPa | 0 mm | - | - | - |
| 1777933393 | 10° C | 98% | 1011.6 hPa | 0 mm | - | - | - |
| 1777932493 | 10° C | 98% | 1011.6 hPa | 0 mm | - | - | - |
| 1777931593 | 10° C | 97% | 1012 hPa | 0 mm | - | - | - |
| 1777930694 | 10.56° C | 97% | 1012 hPa | 0 mm | - | - | - |
| 1777929793 | 10.56° C | 96% | 1012 hPa | 0 mm | - | - | - |
| 1777928893 | 10.56° C | 95% | 1012 hPa | 0 mm | - | - | - |
| 1777927993 | 10.56° C | 96% | 1012 hPa | 0 mm | - | - | - |
| 1777927093 | 11.11° C | 95% | 1012.3 hPa | 0 mm | - | - | - |
| 1777926193 | 11.11° C | 94% | 1012.3 hPa | 0 mm | - | - | - |
| 1777925293 | 11.67° C | 94% | 1012.3 hPa | 0 mm | - | - | - |
| 1777924393 | 13.89° C | 85% | 1012.6 hPa | 0 mm | - | - | - |
* Rain latest hour (hover to see other rain measurements)
** Current wind speed in m/s (hover to see current wind gust speed)